Flag for Syria Weather past 2 weeks in Aleppo, Syria

Now
57 °F

Clear.


Feels Like: 56 °F
Forecast: 39 / 58 °F
Wind: 7 mph from Northwest

Location: Iskenderun

Current Time: Jan 28, 2015 at 11:25:20 PM

Latest Report: Jan 28, 2015 at 8:00 PM


Visibility: 13 mi

Pressure: 29.94 "Hg

Humidity: 61%

Dew point: 44 °F

Location of AleppoLocation

Historic Weather in Aleppo — Graph

°F

Aleppo temperature yesterday

Maximum temperature yesterday: 63 °F (at 1:00 PM)
Minimum temperature yesterday: 54 °F (at 5:00 AM)
Average temperature yesterday: 59 °F

Past Weeks' High & Low Weather Summary

 TemperatureHumidityPressure
High70 °F (Jan 25, 3:00 PM)81% (Jan 16, 12:00 AM)30.34 "Hg (Jan 16, 12:00 AM)
Low44 °F (Jan 15, 7:00 PM)3% (Jan 21, 4:00 AM)29.84 "Hg (Jan 28, 8:00 AM)
Average56 °F53%30.15 "Hg
* Reported Jan 13 8:00 PM — Jan 28 8:00 PM, Aleppo, Weather by CustomWeather, © 2014

Note: Actual official high and low records may vary slightly from our data, if they occured in-between our weather recording intervals... More about our weather records

Advertising

Aleppo weather history for previous 24 hours

 ConditionsComfort  
Time TempWeatherWind HumidityBarometerVisibility
8:00 PM
Jan 28
57 °FClear.7 mph61%29.94 "Hg12 mi
7:00 PM57 °FPassing clouds.6 mph61%29.94 "Hg12 mi
6:00 PM57 °FPassing clouds.8 mph62%29.93 "Hg12 mi
5:00 PM58 °FPassing clouds.6 mph70%29.91 "Hg12 mi
4:00 PM59 °FPartly sunny.5 mph54%29.89 "Hg12 mi
3:00 PM60 °FPartly sunny.7 mph51%29.89 "Hg12 mi
2:00 PM61 °FPassing clouds.No wind45%29.88 "Hg12 mi
1:00 PM58 °FPartly sunny.2 mph55%29.88 "Hg9 mi
12:00 PM54 °FSprinkles. Overcast.6 mph76%29.93 "Hg6 mi
11:00 AM58 °FSprinkles. Overcast.6 mph55%29.89 "Hg6 mi
10:00 AM57 °FSprinkles. Overcast.12 mph66%29.95 "Hg6 mi
9:00 AM59 °FOvercast.6 mph40%29.88 "Hg4 mi
8:00 AM58 °FPartly sunny.5 mph44%29.84 "Hg9 mi
5:00 AM55 °FClear.2 mph47%29.85 "Hg9 mi
2:00 AM55 °FClear.1 mph51%29.91 "Hg9 mi
11:00 PM
Jan 27
58 °FClear.3 mph47%29.98 "Hg9 mi
Weather by CustomWeather, © 2014

See weather overviewHow to use our weather pages